Time,TemperatureF,DewpointF,PressureIn,WindDirection,WindDirectionDegrees,WindSpeedMPH,WindSpeedGustMPH,Humidity,HourlyPrecipIn,Conditions,Clouds,dailyrainin,SoftwareType,DateUTC
2013-04-20 00:08:00,36.9,33.7,29.38,NW,315,1.3,1.3,88,0.00,,OVC240,0.00,VWS V14.01,2013-04-20 05:08:00,
2013-04-20 00:10:00,36.9,33.7,29.38,NW,315,1.3,1.3,88,0.00,,OVC240,0.00,VWS V14.01,2013-04-20 05:10:00,
2013-04-20 00:18:00,36.9,33.7,29.38,NNW,338,1.3,1.3,88,0.00,,OVC240,0.00,VWS V14.01,2013-04-20 05:18:00,
2013-04-20 00:20:00,36.9,33.7,29.38,NNW,338,1.3,1.3,88,0.00,,OVC240,0.00,VWS V14.01,2013-04-20 05:20:00,
2013-04-20 00:28:00,36.7,33.5,29.38,North,0,1.3,1.6,88,0.00,,OVC240,0.00,VWS V14.01,2013-04-20 05:28:00,
2013-04-20 00:30:00,36.7,33.5,29.38,North,0,1.3,1.6,88,0.00,,OVC240,0.00,VWS V14.01,2013-04-20 05:30:00,
2013-04-20 00:38:00,36.3,33.1,29.38,North,0,1.3,1.3,88,0.00,,OVC240,0.00,VWS V14.01,2013-04-20 05:38:00,
2013-04-20 00:40:00,36.3,33.1,29.38,North,0,1.3,1.3,88,0.00,,OVC240,0.00,VWS V14.01,2013-04-20 05:40:00,
2013-04-20 00:48:00,36.0,32.8,29.38,NNW,338,1.1,1.6,88,0.00,,OVC240,0.00,VWS V14.01,2013-04-20 05:48:00,
2013-04-20 00:50:00,36.0,32.8,29.38,NNW,338,1.1,1.6,88,0.00,,OVC240,0.00,VWS V14.01,2013-04-20 05:50:00,
2013-04-20 00:58:00,35.8,32.9,29.38,NNW,338,1.1,1.6,89,0.00,,OVC240,0.00,VWS V14.01,2013-04-20 05:58:00,
2013-04-20 01:00:00,35.8,32.9,29.38,NNW,338,1.1,1.6,89,0.00,,OVC240,0.00,VWS V14.01,2013-04-20 06:00:00,
2013-04-20 01:08:00,35.8,32.9,29.35,North,0,1.1,2.0,89,0.00,,OVC240,0.00,VWS V14.01,2013-04-20 06:08:00,
2013-04-20 01:10:00,35.8,32.9,29.35,North,0,1.1,2.0,89,0.00,,OVC240,0.00,VWS V14.01,2013-04-20 06:10:00,
2013-04-20 01:18:00,35.6,32.7,29.38,NW,315,1.3,1.6,89,0.00,,OVC240,0.00,VWS V14.01,2013-04-20 06:18:00,
2013-04-20 01:20:00,35.6,32.7,29.38,NW,315,1.3,1.6,89,0.00,,OVC240,0.00,VWS V14.01,2013-04-20 06:20:00,
2013-04-20 01:28:00,35.6,32.7,29.41,NNW,338,1.6,1.6,89,0.00,,OVC240,0.00,VWS V14.01,2013-04-20 06:28:00,
2013-04-20 01:30:00,35.6,32.7,29.41,NNW,338,1.6,1.6,89,0.00,,OVC240,0.00,VWS V14.01,2013-04-20 06:30:00,
2013-04-20 01:38:00,35.4,33.1,29.41,NNW,338,1.6,1.6,91,0.00,,OVC240,0.00,VWS V14.01,2013-04-20 06:38:00,
2013-04-20 01:40:00,35.4,33.1,29.41,NNW,338,1.6,1.6,91,0.00,,OVC240,0.00,VWS V14.01,2013-04-20 06:40:00,
2013-04-20 01:48:00,35.4,33.1,29.38,North,0,0.0,0.0,91,0.00,,OVC240,0.00,VWS V14.01,2013-04-20 06:48:00,
2013-04-20 01:50:00,35.4,33.1,29.38,North,0,0.0,0.0,91,0.00,,OVC240,0.00,VWS V14.01,2013-04-20 06:50:00,
2013-04-20 01:58:00,35.6,33.5,29.38,NNW,338,1.3,1.6,92,0.00,,OVC240,0.00,VWS V14.01,2013-04-20 06:58:00,
2013-04-20 02:00:00,35.6,33.5,29.38,NNW,338,1.3,1.6,92,0.00,,OVC240,0.00,VWS V14.01,2013-04-20 07:00:00,
2013-04-20 02:08:00,35.4,33.3,29.38,North,0,0.0,0.0,92,0.00,,OVC240,0.00,VWS V14.01,2013-04-20 07:08:00,
2013-04-20 02:10:00,35.4,33.3,29.38,North,0,0.0,0.0,92,0.00,,OVC240,0.00,VWS V14.01,2013-04-20 07:10:00,
2013-04-20 02:18:00,35.1,33.0,29.41,North,0,0.0,0.0,92,0.00,,OVC240,0.00,VWS V14.01,2013-04-20 07:18:00,
2013-04-20 02:20:00,35.1,33.0,29.41,North,0,0.0,0.0,92,0.00,,OVC240,0.00,VWS V14.01,2013-04-20 07:20:00,
2013-04-20 02:28:00,34.7,32.6,29.38,North,0,0.0,0.0,92,0.00,,OVC240,0.00,VWS V14.01,2013-04-20 07:28:00,
2013-04-20 02:30:00,34.7,32.6,29.38,North,0,0.0,0.0,92,0.00,,OVC240,0.00,VWS V14.01,2013-04-20 07:30:00,
2013-04-20 02:38:00,34.5,32.4,29.38,North,0,0.0,0.0,92,0.00,,OVC240,0.00,VWS V14.01,2013-04-20 07:38:00,
2013-04-20 02:40:00,34.5,32.4,29.38,North,0,0.0,0.0,92,0.00,,OVC240,0.00,VWS V14.01,2013-04-20 07:40:00,
2013-04-20 02:48:00,34.5,32.4,29.38,North,0,0.0,0.0,92,0.00,,OVC240,0.00,VWS V14.01,2013-04-20 07:48:00,
2013-04-20 02:50:00,34.5,32.4,29.38,North,0,0.0,0.0,92,0.00,,OVC240,0.00,VWS V14.01,2013-04-20 07:50:00,
2013-04-20 02:58:00,34.5,32.4,29.38,North,0,0.0,0.0,92,0.00,,OVC240,0.00,VWS V14.01,2013-04-20 07:58:00,
2013-04-20 03:00:00,34.5,32.4,29.38,North,0,0.0,0.0,92,0.00,,OVC240,0.00,VWS V14.01,2013-04-20 08:00:00,
2013-04-20 03:08:00,34.3,32.5,29.38,North,0,0.0,0.0,93,0.00,,OVC240,0.00,VWS V14.01,2013-04-20 08:08:00,
2013-04-20 03:10:00,34.3,32.5,29.38,North,0,0.0,0.0,93,0.00,,OVC240,0.00,VWS V14.01,2013-04-20 08:10:00,
2013-04-20 03:18:00,34.2,32.3,29.35,North,0,0.0,0.0,93,0.00,,OVC240,0.00,VWS V14.01,2013-04-20 08:18:00,
2013-04-20 03:20:00,34.2,32.3,29.35,North,0,0.0,0.0,93,0.00,,OVC240,0.00,VWS V14.01,2013-04-20 08:20:00,
2013-04-20 03:28:00,34.2,32.3,29.35,North,0,0.0,0.0,93,0.00,,OVC240,0.00,VWS V14.01,2013-04-20 08:28:00,
2013-04-20 03:30:00,34.2,32.3,29.35,North,0,0.0,0.0,93,0.00,,OVC240,0.00,VWS V14.01,2013-04-20 08:30:00,
2013-04-20 03:38:00,34.0,32.2,29.35,North,0,0.0,0.0,93,0.00,,OVC240,0.00,VWS V14.01,2013-04-20 08:38:00,
2013-04-20 03:40:00,34.0,32.2,29.35,North,0,0.0,0.0,93,0.00,,OVC240,0.00,VWS V14.01,2013-04-20 08:40:00,
2013-04-20 03:48:00,34.0,32.2,29.38,North,0,0.0,0.0,93,0.00,,OVC240,0.00,VWS V14.01,2013-04-20 08:48:00,
2013-04-20 03:50:00,34.0,32.2,29.38,North,0,0.0,0.0,93,0.00,,OVC240,0.00,VWS V14.01,2013-04-20 08:50:00,
2013-04-20 03:58:00,33.6,31.8,29.35,North,0,0.0,0.0,93,0.00,,OVC240,0.00,VWS V14.01,2013-04-20 08:58:00,
2013-04-20 04:00:00,33.6,31.8,29.35,North,0,0.0,0.0,93,0.00,,OVC240,0.00,VWS V14.01,2013-04-20 09:00:00,
2013-04-20 04:08:00,33.1,31.5,29.35,North,0,0.0,0.0,94,0.00,,OVC240,0.00,VWS V14.01,2013-04-20 09:08:00,
2013-04-20 04:10:00,33.1,31.5,29.35,North,0,0.0,0.0,94,0.00,,OVC240,0.00,VWS V14.01,2013-04-20 09:10:00,
2013-04-20 04:18:00,33.1,31.5,29.38,North,0,0.0,0.0,94,0.00,,OVC240,0.00,VWS V14.01,2013-04-20 09:18:00,
2013-04-20 04:20:00,33.1,31.5,29.38,North,0,0.0,0.0,94,0.00,,OVC240,0.00,VWS V14.01,2013-04-20 09:20:00,
2013-04-20 04:28:00,32.7,31.2,29.38,North,0,0.0,0.0,94,0.00,,OVC240,0.00,VWS V14.01,2013-04-20 09:28:00,
2013-04-20 04:30:00,32.7,31.2,29.38,North,0,0.0,0.0,94,0.00,,OVC240,0.00,VWS V14.01,2013-04-20 09:30:00,
2013-04-20 04:38:00,32.7,31.2,29.38,North,0,0.0,0.0,94,0.00,,OVC240,0.00,VWS V14.01,2013-04-20 09:38:00,
2013-04-20 04:40:00,32.7,31.2,29.38,North,0,0.0,0.0,94,0.00,,OVC240,0.00,VWS V14.01,2013-04-20 09:40:00,
2013-04-20 04:48:00,32.4,31.1,29.38,North,0,0.0,0.0,95,0.00,,OVC240,0.00,VWS V14.01,2013-04-20 09:48:00,
2013-04-20 04:50:00,32.4,31.1,29.38,North,0,0.0,0.0,95,0.00,,OVC240,0.00,VWS V14.01,2013-04-20 09:50:00,
2013-04-20 04:58:00,32.2,30.9,29.38,North,0,0.0,0.0,95,0.00,,OVC240,0.00,VWS V14.01,2013-04-20 09:58:00,
2013-04-20 05:00:00,32.2,30.9,29.38,North,0,0.0,0.0,95,0.00,,OVC240,0.00,VWS V14.01,2013-04-20 10:00:00,
2013-04-20 05:08:00,32.0,30.5,29.38,North,0,0.0,0.0,94,0.00,,OVC240,0.00,VWS V14.01,2013-04-20 10:08:00,
2013-04-20 05:10:00,32.0,30.5,29.38,North,0,0.0,0.0,94,0.00,,OVC240,0.00,VWS V14.01,2013-04-20 10:10:00,
2013-04-20 05:18:00,31.8,30.5,29.38,North,0,0.0,0.0,95,0.00,,OVC240,0.00,VWS V14.01,2013-04-20 10:18:00,
2013-04-20 05:20:00,31.8,30.5,29.38,North,0,0.0,0.0,95,0.00,,OVC240,0.00,VWS V14.01,2013-04-20 10:20:00,
2013-04-20 05:28:00,31.5,30.2,29.38,North,0,0.0,0.0,95,0.00,,OVC240,0.00,VWS V14.01,2013-04-20 10:28:00,
2013-04-20 05:30:00,31.5,30.2,29.38,North,0,0.0,0.0,95,0.00,,OVC240,0.00,VWS V14.01,2013-04-20 10:30:00,
2013-04-20 05:48:00,31.5,30.2,29.41,North,0,0.0,0.0,95,0.00,,OVC240,0.00,VWS V14.01,2013-04-20 10:48:00,
2013-04-20 05:50:00,31.5,30.2,29.41,North,0,0.0,0.0,95,0.00,,OVC240,0.00,VWS V14.01,2013-04-20 10:50:00,
2013-04-20 05:58:00,31.3,30.0,29.41,North,0,0.0,0.0,95,0.00,,OVC240,0.00,VWS V14.01,2013-04-20 10:58:00,
2013-04-20 06:00:00,31.3,30.0,29.41,North,0,0.0,0.0,95,0.00,,OVC240,0.00,VWS V14.01,2013-04-20 11:00:00,
2013-04-20 06:08:00,31.3,30.0,29.41,North,0,0.0,0.0,95,0.00,,OVC240,0.00,VWS V14.01,2013-04-20 11:08:00,
2013-04-20 06:10:00,31.3,30.0,29.41,North,0,0.0,0.0,95,0.00,,OVC240,0.00,VWS V14.01,2013-04-20 11:10:00,
2013-04-20 06:18:00,31.5,30.2,29.41,North,0,0.0,0.0,95,0.00,,OVC240,0.00,VWS V14.01,2013-04-20 11:18:00,
2013-04-20 06:20:00,31.5,30.2,29.41,North,0,0.0,0.0,95,0.00,,OVC240,0.00,VWS V14.01,2013-04-20 11:20:00,
2013-04-20 06:28:00,31.6,30.6,29.44,North,0,0.0,0.0,96,0.00,,OVC240,0.00,VWS V14.01,2013-04-20 11:28:00,
2013-04-20 06:30:00,31.6,30.6,29.44,North,0,0.0,0.0,96,0.00,,OVC240,0.00,VWS V14.01,2013-04-20 11:30:00,
2013-04-20 06:38:00,32.4,31.4,29.44,North,0,0.0,0.0,96,0.00,,OVC240,0.00,VWS V14.01,2013-04-20 11:38:00,
2013-04-20 06:40:00,32.4,31.4,29.44,North,0,0.0,0.0,96,0.00,,OVC240,0.00,VWS V14.01,2013-04-20 11:40:00,
2013-04-20 06:58:00,33.6,32.6,29.41,SSE,158,0.0,0.0,96,0.00,,OVC240,0.00,VWS V14.01,2013-04-20 11:58:00,
2013-04-20 07:00:00,33.6,32.6,29.41,SSE,158,0.0,0.0,96,0.00,,OVC240,0.00,VWS V14.01,2013-04-20 12:00:00,
2013-04-20 07:08:00,36.0,34.9,29.41,SE,135,0.0,0.0,96,0.00,,OVC240,0.00,VWS V14.01,2013-04-20 12:08:00,
2013-04-20 07:10:00,36.0,34.9,29.41,SE,135,0.0,0.0,96,0.00,,OVC240,0.00,VWS V14.01,2013-04-20 12:10:00,
2013-04-20 07:18:00,37.6,36.8,29.41,SE,135,1.3,1.3,97,0.00,,OVC240,0.00,VWS V14.01,2013-04-20 12:18:00,
2013-04-20 07:20:00,37.6,36.8,29.41,SE,135,1.3,1.3,97,0.00,,OVC240,0.00,VWS V14.01,2013-04-20 12:20:00,
2013-04-20 07:28:00,38.7,38.2,29.44,SE,135,1.1,1.1,98,0.00,,OVC240,0.00,VWS V14.01,2013-04-20 12:28:00,
2013-04-20 07:30:00,38.7,38.2,29.44,SE,135,1.1,1.1,98,0.00,,OVC240,0.00,VWS V14.01,2013-04-20 12:30:00,
2013-04-20 07:38:00,39.7,39.0,29.44,ESE,112,1.6,1.6,97,0.00,,OVC240,0.00,VWS V14.01,2013-04-20 12:38:00,
2013-04-20 07:40:00,39.7,39.0,29.44,ESE,112,1.6,1.6,97,0.00,,OVC240,0.00,VWS V14.01,2013-04-20 12:40:00,
2013-04-20 07:48:00,39.6,38.0,29.44,NE,45,1.3,1.3,94,0.00,,OVC240,0.00,VWS V14.01,2013-04-20 12:48:00,
2013-04-20 07:50:00,39.6,38.0,29.44,NE,45,1.3,1.3,94,0.00,,OVC240,0.00,VWS V14.01,2013-04-20 12:50:00,
2013-04-20 07:58:00,39.0,36.9,29.44,ENE,68,2.0,2.0,92,0.00,,OVC240,0.00,VWS V14.01,2013-04-20 12:58:00,
2013-04-20 08:00:00,39.0,36.9,29.44,ENE,68,2.0,2.0,92,0.00,,OVC240,0.00,VWS V14.01,2013-04-20 13:00:00,
2013-04-20 08:18:00,43.5,40.5,29.47,SE,135,1.3,2.0,89,0.00,,OVC240,0.00,VWS V14.01,2013-04-20 13:18:00,
2013-04-20 08:20:00,43.5,40.5,29.47,SE,135,1.3,2.0,89,0.00,,OVC240,0.00,VWS V14.01,2013-04-20 13:20:00,
2013-04-20 08:28:00,46.8,42.2,29.47,SE,135,1.6,1.6,84,0.00,,OVC240,0.00,VWS V14.01,2013-04-20 13:28:00,
2013-04-20 08:30:00,46.8,42.2,29.47,SE,135,1.6,1.6,84,0.00,,OVC240,0.00,VWS V14.01,2013-04-20 13:30:00,
2013-04-20 08:39:00,48.0,39.4,29.47,SE,135,1.6,1.6,72,0.00,,OVC240,0.00,VWS V14.01,2013-04-20 13:39:00,
2013-04-20 08:40:00,48.0,39.4,29.47,SE,135,1.6,1.6,72,0.00,,OVC240,0.00,VWS V14.01,2013-04-20 13:40:00,
2013-04-20 08:48:00,50.0,40.2,29.47,SSE,158,2.5,2.5,69,0.00,,OVC240,0.00,VWS V14.01,2013-04-20 13:48:00,
2013-04-20 08:50:00,50.0,40.2,29.47,SSE,158,2.5,2.5,69,0.00,,OVC240,0.00,VWS V14.01,2013-04-20 13:50:00,
2013-04-20 08:58:00,51.1,39.7,29.47,SE,135,3.4,3.4,65,0.00,,OVC240,0.00,VWS V14.01,2013-04-20 13:58:00,
2013-04-20 09:00:00,51.1,39.7,29.47,SE,135,3.4,3.4,65,0.00,,OVC240,0.00,VWS V14.01,2013-04-20 14:00:00,
2013-04-20 09:08:00,52.0,39.0,29.47,South,180,2.2,2.2,61,0.00,,OVC240,0.00,VWS V14.01,2013-04-20 14:08:00,
2013-04-20 09:10:00,52.0,39.0,29.47,South,180,2.2,2.2,61,0.00,,OVC240,0.00,VWS V14.01,2013-04-20 14:10:00,
2013-04-20 09:18:00,53.4,39.0,29.47,SE,135,2.7,2.7,58,0.00,,OVC240,0.00,VWS V14.01,2013-04-20 14:18:00,
2013-04-20 09:20:00,53.4,39.0,29.47,SE,135,2.7,2.7,58,0.00,,OVC240,0.00,VWS V14.01,2013-04-20 14:20:00,
2013-04-20 09:28:00,54.7,39.3,29.47,SSW,202,2.5,2.5,56,0.00,,OVC240,0.00,VWS V14.01,2013-04-20 14:28:00,
2013-04-20 09:30:00,54.7,39.3,29.47,SSW,202,2.5,2.5,56,0.00,,OVC240,0.00,VWS V14.01,2013-04-20 14:30:00,
2013-04-20 09:38:00,55.8,38.9,29.47,East,90,0.9,1.3,53,0.00,,OVC240,0.00,VWS V14.01,2013-04-20 14:38:00,
2013-04-20 09:40:00,55.8,38.9,29.47,East,90,0.9,1.3,53,0.00,,OVC240,0.00,VWS V14.01,2013-04-20 14:40:00,
2013-04-20 09:48:00,57.0,39.1,29.47,SE,135,3.8,3.8,51,0.00,,OVC240,0.00,VWS V14.01,2013-04-20 14:48:00,
2013-04-20 09:50:00,57.0,39.1,29.47,SE,135,3.8,3.8,51,0.00,,OVC240,0.00,VWS V14.01,2013-04-20 14:50:00,
2013-04-20 09:58:00,58.5,39.4,29.50,SE,135,3.6,4.7,49,0.00,,OVC240,0.00,VWS V14.01,2013-04-20 14:58:00,
2013-04-20 10:00:00,58.5,39.4,29.50,SE,135,3.6,4.7,49,0.00,,OVC240,0.00,VWS V14.01,2013-04-20 15:00:00,
2013-04-20 10:08:00,60.4,40.7,29.50,NNW,338,1.6,1.6,48,0.00,,OVC240,0.00,VWS V14.01,2013-04-20 15:08:00,
2013-04-20 10:10:00,60.4,40.7,29.50,NNW,338,1.6,1.6,48,0.00,,OVC240,0.00,VWS V14.01,2013-04-20 15:10:00,
2013-04-20 10:18:00,61.3,40.4,29.47,NE,45,2.0,2.0,46,0.00,,OVC240,0.00,VWS V14.01,2013-04-20 15:18:00,
2013-04-20 10:20:00,61.3,40.4,29.47,NE,45,2.0,2.0,46,0.00,,OVC240,0.00,VWS V14.01,2013-04-20 15:20:00,
2013-04-20 10:38:00,63.1,40.9,29.50,SE,135,2.5,3.6,44,0.00,,OVC240,0.00,VWS V14.01,2013-04-20 15:38:00,
2013-04-20 10:40:00,63.1,40.9,29.50,SE,135,2.5,3.6,44,0.00,,OVC240,0.00,VWS V14.01,2013-04-20 15:40:00,
2013-04-20 10:48:00,64.4,38.9,29.47,NNE,22,2.0,2.0,39,0.00,,OVC240,0.00,VWS V14.01,2013-04-20 15:48:00,
2013-04-20 10:50:00,64.4,38.9,29.47,NNE,22,2.0,2.0,39,0.00,,OVC240,0.00,VWS V14.01,2013-04-20 15:50:00,
2013-04-20 10:58:00,65.7,37.3,29.47,North,0,4.9,5.4,35,0.00,,OVC240,0.00,VWS V14.01,2013-04-20 15:58:00,
2013-04-20 11:00:00,65.7,37.3,29.47,North,0,4.9,5.4,35,0.00,,OVC240,0.00,VWS V14.01,2013-04-20 16:00:00,
2013-04-20 11:08:00,64.9,35.9,29.47,NE,45,6.5,8.1,34,0.00,,OVC240,0.00,VWS V14.01,2013-04-20 16:08:00,
2013-04-20 11:10:00,64.9,35.9,29.47,NE,45,6.5,8.1,34,0.00,,OVC240,0.00,VWS V14.01,2013-04-20 16:10:00,
2013-04-20 11:18:00,65.8,33.6,29.47,NNE,22,5.6,5.6,30,0.00,,OVC240,0.00,VWS V14.01,2013-04-20 16:18:00,
2013-04-20 11:20:00,65.8,33.6,29.47,NNE,22,5.6,5.6,30,0.00,,OVC240,0.00,VWS V14.01,2013-04-20 16:20:00,
2013-04-20 11:28:00,66.2,34.7,29.47,West,270,3.1,3.1,31,0.00,,OVC240,0.00,VWS V14.01,2013-04-20 16:28:00,
2013-04-20 11:30:00,66.2,34.7,29.47,West,270,3.1,3.1,31,0.00,,OVC240,0.00,VWS V14.01,2013-04-20 16:30:00,
2013-04-20 11:38:00,66.0,31.1,29.47,East,90,5.8,5.8,27,0.00,,OVC240,0.00,VWS V14.01,2013-04-20 16:38:00,
2013-04-20 11:40:00,66.0,31.1,29.47,East,90,5.8,5.8,27,0.00,,OVC240,0.00,VWS V14.01,2013-04-20 16:40:00,
2013-04-20 11:48:00,65.3,32.3,29.47,NNE,22,10.1,10.1,29,0.00,,OVC240,0.00,VWS V14.01,2013-04-20 16:48:00,
2013-04-20 11:50:00,65.3,32.3,29.47,NNE,22,10.1,10.1,29,0.00,,OVC240,0.00,VWS V14.01,2013-04-20 16:50:00,
2013-04-20 11:58:00,66.0,32.0,29.47,SE,135,2.2,3.4,28,0.00,,OVC240,0.00,VWS V14.01,2013-04-20 16:58:00,
2013-04-20 12:00:00,66.0,32.0,29.47,SE,135,2.2,3.4,28,0.00,,OVC240,0.00,VWS V14.01,2013-04-20 17:00:00,
2013-04-20 12:08:00,68.4,36.6,29.47,North,0,0.9,2.2,31,0.00,,OVC240,0.00,VWS V14.01,2013-04-20 17:08:00,
2013-04-20 12:10:00,68.4,36.6,29.47,North,0,0.9,2.2,31,0.00,,OVC240,0.00,VWS V14.01,2013-04-20 17:10:00,
2013-04-20 12:18:00,67.3,35.6,29.44,NE,45,5.4,5.4,31,0.00,,OVC240,0.00,VWS V14.01,2013-04-20 17:18:00,
2013-04-20 12:20:00,67.3,35.6,29.44,NE,45,5.4,5.4,31,0.00,,OVC240,0.00,VWS V14.01,2013-04-20 17:20:00,
2013-04-20 12:28:00,68.4,34.9,29.44,North,0,2.0,3.6,29,0.00,,OVC240,0.00,VWS V14.01,2013-04-20 17:28:00,
2013-04-20 12:30:00,68.4,34.9,29.44,North,0,2.0,3.6,29,0.00,,OVC240,0.00,VWS V14.01,2013-04-20 17:30:00,
2013-04-20 12:38:00,69.1,38.0,29.44,North,0,2.9,4.0,32,0.00,,OVC240,0.00,VWS V14.01,2013-04-20 17:38:00,
2013-04-20 12:40:00,69.1,38.0,29.44,North,0,2.9,4.0,32,0.00,,OVC240,0.00,VWS V14.01,2013-04-20 17:40:00,
2013-04-20 12:48:00,69.3,34.8,29.44,East,90,2.7,3.6,28,0.00,,OVC240,0.00,VWS V14.01,2013-04-20 17:48:00,
2013-04-20 12:50:00,69.3,34.8,29.44,East,90,2.7,3.6,28,0.00,,OVC240,0.00,VWS V14.01,2013-04-20 17:50:00,
2013-04-20 13:08:00,69.6,36.8,29.44,SSE,158,9.8,9.8,30,0.00,,OVC240,0.00,VWS V14.01,2013-04-20 18:08:00,
2013-04-20 13:10:00,69.6,36.8,29.44,SSE,158,9.8,9.8,30,0.00,,OVC240,0.00,VWS V14.01,2013-04-20 18:10:00,
2013-04-20 13:18:00,69.4,33.1,29.44,NNE,22,2.9,4.0,26,0.00,,OVC240,0.00,VWS V14.01,2013-04-20 18:18:00,
2013-04-20 13:20:00,69.4,33.1,29.44,NNE,22,2.9,4.0,26,0.00,,OVC240,0.00,VWS V14.01,2013-04-20 18:20:00,
2013-04-20 13:28:00,69.1,34.6,29.41,NNE,22,6.5,6.5,28,0.00,,OVC240,0.00,VWS V14.01,2013-04-20 18:28:00,
2013-04-20 13:30:00,69.1,34.6,29.41,NNE,22,6.5,6.5,28,0.00,,OVC240,0.00,VWS V14.01,2013-04-20 18:30:00,
2013-04-20 13:38:00,69.6,34.2,29.41,SW,225,3.6,4.9,27,0.00,,OVC240,0.00,VWS V14.01,2013-04-20 18:38:00,
2013-04-20 13:40:00,69.6,34.2,29.41,SW,225,3.6,4.9,27,0.00,,OVC240,0.00,VWS V14.01,2013-04-20 18:40:00,
2013-04-20 13:48:00,71.8,38.7,29.44,SW,225,3.6,3.6,30,0.00,,OVC240,0.00,VWS V14.01,2013-04-20 18:48:00,
2013-04-20 13:50:00,71.8,38.7,29.44,SW,225,3.6,3.6,30,0.00,,OVC240,0.00,VWS V14.01,2013-04-20 18:50:00,
2013-04-20 13:58:00,71.1,35.4,29.44,South,180,5.4,6.3,27,0.00,,OVC240,0.00,VWS V14.01,2013-04-20 18:58:00,
2013-04-20 14:00:00,71.1,35.4,29.44,South,180,5.4,6.3,27,0.00,,OVC240,0.00,VWS V14.01,2013-04-20 19:00:00,
2013-04-20 14:08:00,71.8,33.1,29.44,NNE,22,5.4,5.4,24,0.00,,OVC240,0.00,VWS V14.01,2013-04-20 19:08:00,
2013-04-20 14:10:00,71.8,33.1,29.44,NNE,22,5.4,5.4,24,0.00,,OVC240,0.00,VWS V14.01,2013-04-20 19:10:00,
2013-04-20 14:18:00,72.1,31.2,29.41,SE,135,3.4,3.4,22,0.00,,OVC240,0.00,VWS V14.01,2013-04-20 19:18:00,
2013-04-20 14:20:00,72.1,31.2,29.41,SE,135,3.4,3.4,22,0.00,,OVC240,0.00,VWS V14.01,2013-04-20 19:20:00,
2013-04-20 14:38:00,71.8,30.9,29.41,ENE,68,2.0,2.0,22,0.00,,OVC240,0.00,VWS V14.01,2013-04-20 19:38:00,
2013-04-20 14:40:00,71.8,30.9,29.41,ENE,68,2.0,2.0,22,0.00,,OVC240,0.00,VWS V14.01,2013-04-20 19:40:00,
2013-04-20 14:48:00,72.1,32.3,29.44,NE,45,7.4,7.4,23,0.00,,OVC240,0.00,VWS V14.01,2013-04-20 19:48:00,
2013-04-20 14:50:00,72.1,32.3,29.44,NE,45,7.4,7.4,23,0.00,,OVC240,0.00,VWS V14.01,2013-04-20 19:50:00,
2013-04-20 14:58:00,71.8,33.1,29.41,NE,45,7.6,7.6,24,0.00,,OVC240,0.00,VWS V14.01,2013-04-20 19:58:00,
2013-04-20 15:00:00,71.8,33.1,29.41,NE,45,7.6,7.6,24,0.00,,OVC240,0.00,VWS V14.01,2013-04-20 20:00:00,
2013-04-20 15:18:00,72.9,30.7,29.47,SW,225,6.3,6.3,21,0.00,,OVC240,0.00,VWS V14.01,2013-04-20 20:18:00,
2013-04-20 15:20:00,72.9,30.7,29.47,SW,225,6.3,6.3,21,0.00,,OVC240,0.00,VWS V14.01,2013-04-20 20:20:00,
2013-04-20 15:28:00,73.4,33.4,29.41,North,0,2.9,3.1,23,0.00,,OVC240,0.00,VWS V14.01,2013-04-20 20:28:00,
2013-04-20 15:30:00,73.4,33.4,29.41,North,0,2.9,3.1,23,0.00,,OVC240,0.00,VWS V14.01,2013-04-20 20:30:00,
2013-04-20 15:38:00,71.6,30.8,29.41,NE,45,10.1,10.1,22,0.00,,OVC240,0.00,VWS V14.01,2013-04-20 20:38:00,
2013-04-20 15:40:00,71.6,30.8,29.41,NE,45,10.1,10.1,22,0.00,,OVC240,0.00,VWS V14.01,2013-04-20 20:40:00,
2013-04-20 15:48:00,72.1,31.2,29.41,SE,135,2.9,2.9,22,0.00,,OVC240,0.00,VWS V14.01,2013-04-20 20:48:00,
2013-04-20 15:50:00,72.1,31.2,29.41,SE,135,2.9,2.9,22,0.00,,OVC240,0.00,VWS V14.01,2013-04-20 20:50:00,
2013-04-20 15:58:00,73.9,32.7,29.44,NW,315,0.0,0.9,22,0.00,,OVC240,0.00,VWS V14.01,2013-04-20 20:58:00,
2013-04-20 16:00:00,73.9,32.7,29.44,NW,315,0.0,0.9,22,0.00,,OVC240,0.00,VWS V14.01,2013-04-20 21:00:00,
2013-04-20 16:08:00,72.0,33.2,29.44,SE,135,2.0,2.5,24,0.00,,OVC240,0.00,VWS V14.01,2013-04-20 21:08:00,
2013-04-20 16:10:00,72.0,33.2,29.44,SE,135,2.0,2.5,24,0.00,,OVC240,0.00,VWS V14.01,2013-04-20 21:10:00,
2013-04-20 16:18:00,71.8,30.9,29.44,NE,45,4.9,4.9,22,0.00,,OVC240,0.00,VWS V14.01,2013-04-20 21:18:00,
2013-04-20 16:20:00,71.8,30.9,29.44,NE,45,4.9,4.9,22,0.00,,OVC240,0.00,VWS V14.01,2013-04-20 21:20:00,
2013-04-20 16:38:00,70.7,32.2,29.44,NNE,22,3.8,3.8,24,0.00,,OVC240,0.00,VWS V14.01,2013-04-20 21:38:00,
2013-04-20 16:40:00,70.7,32.2,29.44,NNE,22,3.8,3.8,24,0.00,,OVC240,0.00,VWS V14.01,2013-04-20 21:40:00,
2013-04-20 16:48:00,70.2,30.7,29.41,North,0,2.7,2.7,23,0.00,,OVC240,0.00,VWS V14.01,2013-04-20 21:48:00,
2013-04-20 16:50:00,70.2,30.7,29.41,North,0,2.7,2.7,23,0.00,,OVC240,0.00,VWS V14.01,2013-04-20 21:50:00,
2013-04-20 16:58:00,70.0,30.5,29.41,North,0,2.5,2.9,23,0.00,,OVC240,0.00,VWS V14.01,2013-04-20 21:58:00,
2013-04-20 17:00:00,70.0,30.5,29.41,North,0,2.5,2.9,23,0.00,,OVC240,0.00,VWS V14.01,2013-04-20 22:00:00,
2013-04-20 17:18:00,69.4,30.1,29.41,NE,45,4.3,6.0,23,0.00,,OVC240,0.00,VWS V14.01,2013-04-20 22:18:00,
2013-04-20 17:20:00,69.4,30.1,29.41,NE,45,4.3,6.0,23,0.00,,OVC240,0.00,VWS V14.01,2013-04-20 22:20:00,
2013-04-20 17:28:00,69.3,31.0,29.44,North,0,2.0,3.4,24,0.00,,OVC240,0.00,VWS V14.01,2013-04-20 22:28:00,
2013-04-20 17:30:00,69.3,31.0,29.44,North,0,2.0,3.4,24,0.00,,OVC240,0.00,VWS V14.01,2013-04-20 22:30:00,
2013-04-20 17:38:00,68.2,30.0,29.44,NNE,22,3.8,4.0,24,0.00,,OVC240,0.00,VWS V14.01,2013-04-20 22:38:00,
2013-04-20 17:40:00,68.2,30.0,29.44,NNE,22,3.8,4.0,24,0.00,,OVC240,0.00,VWS V14.01,2013-04-20 22:40:00,
2013-04-20 17:48:00,66.4,31.4,29.44,West,270,2.0,2.0,27,0.00,,OVC240,0.00,VWS V14.01,2013-04-20 22:48:00,
2013-04-20 17:50:00,66.4,31.4,29.44,West,270,2.0,2.0,27,0.00,,OVC240,0.00,VWS V14.01,2013-04-20 22:50:00,
2013-04-20 17:58:00,63.0,26.6,29.44,West,270,2.0,2.9,25,0.00,,OVC240,0.00,VWS V14.01,2013-04-20 22:58:00,
2013-04-20 18:00:00,63.0,26.6,29.44,West,270,2.0,2.9,25,0.00,,OVC240,0.00,VWS V14.01,2013-04-20 23:00:00,
2013-04-20 18:08:00,59.7,29.8,29.44,NNW,338,1.1,1.1,32,0.00,,OVC240,0.00,VWS V14.01,2013-04-20 23:08:00,
2013-04-20 18:10:00,59.7,29.8,29.44,NNW,338,1.1,1.1,32,0.00,,OVC240,0.00,VWS V14.01,2013-04-20 23:10:00,
2013-04-20 18:18:00,57.0,31.0,29.41,North,0,0.9,0.9,37,0.00,,OVC240,0.00,VWS V14.01,2013-04-20 23:18:00,
2013-04-20 18:20:00,57.0,31.0,29.41,North,0,0.9,0.9,37,0.00,,OVC240,0.00,VWS V14.01,2013-04-20 23:20:00,
2013-04-20 18:28:00,55.8,30.6,29.44,NW,315,1.6,2.2,38,0.00,,OVC240,0.00,VWS V14.01,2013-04-20 23:28:00,
2013-04-20 18:30:00,55.8,30.6,29.44,NW,315,1.6,2.2,38,0.00,,OVC240,0.00,VWS V14.01,2013-04-20 23:30:00,
2013-04-20 18:38:00,53.8,31.8,29.44,North,0,1.3,1.3,43,0.00,,OVC240,0.00,VWS V14.01,2013-04-20 23:38:00,
2013-04-20 18:40:00,53.8,31.8,29.44,North,0,1.3,1.3,43,0.00,,OVC240,0.00,VWS V14.01,2013-04-20 23:40:00,
2013-04-20 18:48:00,52.5,32.3,29.44,North,0,0.0,0.9,46,0.00,,OVC240,0.00,VWS V14.01,2013-04-20 23:48:00,
2013-04-20 18:50:00,52.5,32.3,29.44,North,0,0.0,0.9,46,0.00,,OVC240,0.00,VWS V14.01,2013-04-20 23:50:00,
2013-04-20 18:58:00,51.6,33.1,29.44,NW,315,1.1,2.7,49,0.00,,OVC240,0.00,VWS V14.01,2013-04-20 23:58:00,
2013-04-20 19:00:00,51.6,33.1,29.44,NW,315,1.1,2.7,49,0.00,,OVC240,0.00,VWS V14.01,2013-04-21 00:00:00,
2013-04-20 19:09:00,50.9,32.4,29.44,NNW,338,1.3,1.3,49,0.00,,OVC240,0.00,VWS V14.01,2013-04-21 00:09:00,
2013-04-20 19:10:00,50.9,32.4,29.44,NNW,338,1.3,1.3,49,0.00,,OVC240,0.00,VWS V14.01,2013-04-21 00:10:00,
2013-04-20 19:18:00,50.0,32.1,29.44,NNW,338,1.6,1.6,50,0.00,,OVC240,0.00,VWS V14.01,2013-04-21 00:18:00,
2013-04-20 19:20:00,50.0,32.1,29.44,NNW,338,1.6,1.6,50,0.00,,OVC240,0.00,VWS V14.01,2013-04-21 00:20:00,
2013-04-20 19:28:00,49.3,32.4,29.47,NNW,338,1.3,1.3,52,0.00,,OVC240,0.00,VWS V14.01,2013-04-21 00:28:00,
2013-04-20 19:30:00,49.3,32.4,29.47,NNW,338,1.3,1.3,52,0.00,,OVC240,0.00,VWS V14.01,2013-04-21 00:30:00,
2013-04-20 19:38:00,48.9,32.1,29.47,NW,315,1.6,1.6,52,0.00,,OVC240,0.00,VWS V14.01,2013-04-21 00:38:00,
2013-04-20 19:40:00,48.9,32.1,29.47,NW,315,1.6,1.6,52,0.00,,OVC240,0.00,VWS V14.01,2013-04-21 00:40:00,
2013-04-20 19:48:00,48.4,32.0,29.47,NNW,338,1.6,1.6,53,0.00,,OVC240,0.00,VWS V14.01,2013-04-21 00:48:00,
2013-04-20 19:50:00,48.4,32.0,29.47,NNW,338,1.6,1.6,53,0.00,,OVC240,0.00,VWS V14.01,2013-04-21 00:50:00,
2013-04-20 19:58:00,48.0,32.2,29.47,North,0,1.6,1.6,54,0.00,,OVC240,0.00,VWS V14.01,2013-04-21 00:58:00,
2013-04-20 20:00:00,48.0,32.2,29.47,North,0,1.6,1.6,54,0.00,,OVC240,0.00,VWS V14.01,2013-04-21 01:00:00,
2013-04-20 20:08:00,47.7,32.3,29.47,North,0,2.0,2.0,55,0.00,,OVC240,0.00,VWS V14.01,2013-04-21 01:08:00,
2013-04-20 20:10:00,47.7,32.3,29.47,North,0,2.0,2.0,55,0.00,,OVC240,0.00,VWS V14.01,2013-04-21 01:10:00,
2013-04-20 20:18:00,47.5,33.0,29.50,NNW,338,1.6,1.6,57,0.00,,OVC240,0.00,VWS V14.01,2013-04-21 01:18:00,
2013-04-20 20:20:00,47.5,33.0,29.50,NNW,338,1.6,1.6,57,0.00,,OVC240,0.00,VWS V14.01,2013-04-21 01:20:00,
2013-04-20 20:28:00,46.9,33.0,29.50,NNW,338,0.0,0.0,58,0.00,,OVC240,0.00,VWS V14.01,2013-04-21 01:28:00,
2013-04-20 20:30:00,46.9,33.0,29.50,NNW,338,0.0,0.0,58,0.00,,OVC240,0.00,VWS V14.01,2013-04-21 01:30:00,
2013-04-20 20:38:00,46.6,33.0,29.50,NNW,338,1.3,1.3,59,0.00,,OVC240,0.00,VWS V14.01,2013-04-21 01:38:00,
2013-04-20 20:40:00,46.6,33.0,29.50,NNW,338,1.3,1.3,59,0.00,,OVC240,0.00,VWS V14.01,2013-04-21 01:40:00,
2013-04-20 20:48:00,46.4,33.7,29.50,North,0,1.6,1.6,61,0.00,,OVC240,0.00,VWS V14.01,2013-04-21 01:48:00,
2013-04-20 20:50:00,46.4,33.7,29.50,North,0,1.6,1.6,61,0.00,,OVC240,0.00,VWS V14.01,2013-04-21 01:50:00,
2013-04-20 20:58:00,46.6,33.9,29.50,North,0,1.6,1.6,61,0.00,,OVC240,0.00,VWS V14.01,2013-04-21 01:58:00,
2013-04-20 21:00:00,46.6,33.9,29.50,North,0,1.6,1.6,61,0.00,,OVC240,0.00,VWS V14.01,2013-04-21 02:00:00,
2013-04-20 21:15:00,46.8,33.6,29.50,North,0,3.1,3.1,60,0.00,,OVC240,0.00,VWS V14.01,2013-04-21 02:15:00,
2013-04-20 21:16:00,46.8,33.6,29.50,North,0,3.1,3.1,60,0.00,,OVC240,0.00,VWS V14.01,2013-04-21 02:16:00,
2013-04-20 21:20:00,47.1,32.7,29.50,NE,45,0.0,3.1,57,0.00,,OVC240,0.00,VWS V14.01,2013-04-21 02:20:00,
2013-04-20 21:28:00,46.9,33.0,29.50,North,0,2.0,2.0,58,0.00,,OVC240,0.00,VWS V14.01,2013-04-21 02:28:00,
2013-04-20 21:30:00,46.9,33.0,29.50,North,0,2.0,2.0,58,0.00,,OVC240,0.00,VWS V14.01,2013-04-21 02:30:00,
2013-04-20 21:38:00,46.0,33.4,29.50,North,0,2.0,2.0,61,0.00,,OVC240,0.00,VWS V14.01,2013-04-21 02:38:00,
2013-04-20 21:40:00,46.0,33.4,29.50,North,0,2.0,2.0,61,0.00,,OVC240,0.00,VWS V14.01,2013-04-21 02:40:00,
2013-04-20 21:48:00,46.4,32.4,29.47,North,0,2.5,2.5,58,0.00,,OVC240,0.00,VWS V14.01,2013-04-21 02:48:00,
2013-04-20 21:50:00,46.4,32.4,29.47,North,0,2.5,2.5,58,0.00,,OVC240,0.00,VWS V14.01,2013-04-21 02:50:00,
2013-04-20 21:58:00,46.0,33.4,29.50,NE,45,0.0,0.0,61,0.00,,OVC240,0.00,VWS V14.01,2013-04-21 02:58:00,
2013-04-20 22:00:00,46.0,33.4,29.50,NE,45,0.0,0.0,61,0.00,,OVC240,0.00,VWS V14.01,2013-04-21 03:00:00,
2013-04-20 22:08:00,45.9,33.6,29.50,NNW,338,0.9,0.9,62,0.00,,OVC240,0.00,VWS V14.01,2013-04-21 03:08:00,
2013-04-20 22:10:00,45.9,33.6,29.50,NNW,338,0.9,0.9,62,0.00,,OVC240,0.00,VWS V14.01,2013-04-21 03:10:00,
2013-04-20 22:28:00,44.2,31.7,29.50,NW,315,0.0,0.0,61,0.00,,OVC240,0.00,VWS V14.01,2013-04-21 03:28:00,
2013-04-20 22:30:00,44.2,31.7,29.50,NW,315,0.0,0.0,61,0.00,,OVC240,0.00,VWS V14.01,2013-04-21 03:30:00,
2013-04-20 22:38:00,43.9,32.1,29.50,NNW,338,2.2,2.2,63,0.00,,OVC240,0.00,VWS V14.01,2013-04-21 03:38:00,
2013-04-20 22:40:00,43.9,32.1,29.50,NNW,338,2.2,2.2,63,0.00,,OVC240,0.00,VWS V14.01,2013-04-21 03:40:00,
2013-04-20 22:48:00,43.9,33.3,29.47,North,0,1.6,1.6,66,0.00,,OVC240,0.00,VWS V14.01,2013-04-21 03:48:00,
2013-04-20 22:50:00,43.9,33.3,29.47,North,0,1.6,1.6,66,0.00,,OVC240,0.00,VWS V14.01,2013-04-21 03:50:00,
2013-04-20 22:58:00,43.7,32.7,29.50,North,0,1.3,1.3,65,0.00,,OVC240,0.00,VWS V14.01,2013-04-21 03:58:00,
2013-04-20 23:00:00,43.7,32.7,29.50,North,0,1.3,1.3,65,0.00,,OVC240,0.00,VWS V14.01,2013-04-21 04:00:00,
2013-04-20 23:08:00,43.9,33.3,29.50,NW,315,0.0,0.0,66,0.00,,OVC240,0.00,VWS V14.01,2013-04-21 04:08:00,
2013-04-20 23:10:00,43.9,33.3,29.50,NW,315,0.0,0.0,66,0.00,,OVC240,0.00,VWS V14.01,2013-04-21 04:10:00,
2013-04-20 23:18:00,43.7,33.8,29.47,North,0,2.2,2.7,68,0.00,,OVC240,0.00,VWS V14.01,2013-04-21 04:18:00,
2013-04-20 23:20:00,43.7,33.8,29.47,North,0,2.2,2.7,68,0.00,,OVC240,0.00,VWS V14.01,2013-04-21 04:20:00,
2013-04-20 23:28:00,43.3,32.8,29.47,North,0,1.6,1.6,66,0.00,,OVC240,0.00,VWS V14.01,2013-04-21 04:28:00,
2013-04-20 23:30:00,43.3,32.8,29.47,North,0,1.6,1.6,66,0.00,,OVC240,0.00,VWS V14.01,2013-04-21 04:30:00,
2013-04-20 23:38:00,43.0,32.0,29.47,North,0,0.9,1.3,65,0.00,,OVC240,0.00,VWS V14.01,2013-04-21 04:38:00,
2013-04-20 23:40:00,43.0,32.0,29.47,North,0,0.9,1.3,65,0.00,,OVC240,0.00,VWS V14.01,2013-04-21 04:40:00,
2013-04-20 23:48:00,43.0,32.8,29.50,North,0,1.3,1.3,67,0.00,,OVC240,0.00,VWS V14.01,2013-04-21 04:48:00,
2013-04-20 23:50:00,43.0,32.8,29.50,North,0,1.3,1.3,67,0.00,,OVC240,0.00,VWS V14.01,2013-04-21 04:50:00,
2013-04-20 23:58:00,43.0,33.2,29.47,North,0,0.0,0.9,68,0.00,,OVC240,0.00,VWS V14.01,2013-04-21 04:58:00,